Regional Weather Roundup
Issued by NWS

Home | Current Version | Previous Version | Graphics & Text | Print | Product List | Glossary On
Versions: 1 2 3 4 5 6 7 8 9 10 11 12 13 14 15 16 17 18 19 20 21 22 23 24 25 26 27 28 29 30 31 32 33 34 35 36 37 38 39 40 41 42 43 44 45 46 47 48 49 50
000
ASUS43 KLOT 310110
RWRIL

ILLINOIS REGIONAL WEATHER ROUNDUP
NATIONAL WEATHER SERVICE CHICAGO/ROMEOVILLE IL
800 PM CDT WED JUL 30 2014

NOTE: "FAIR" INDICATES FEW OR NO CLOUDS BELOW 12,000 FEET WITH NO
SIGNIFICANT WEATHER AND/OR OBSTRUCTIONS TO VISIBILITY.

* THESE STATIONS ARE NOT UNDER NWS QUALITY CONTROL. THEY ALSO MAY NOT
  REPORT WEATHER SUCH AS PRECIPITATION OR FOG.

ILZ001-002-007-009-015-016-024-310200-
NORTHWEST ILLINOIS

CITY           SKY/WX    TMP DP  RH WIND       PRES   REMARKS
MOLINE         CLEAR     76  58  53 NW7       30.03S
STERLING*      CLEAR     72  57  60 N6        30.03S
SAVANNA*       CLEAR     74  55  51 N3        30.02S
$$

ILZ003-004-008-010-011-017-018-310200-
NORTH CENTRAL ILLINOIS

CITY           SKY/WX    TMP DP  RH WIND       PRES   REMARKS
ROCKFORD       CLEAR     72  53  51 NW6       30.02S
FREEPORT*      CLEAR     70  58  65 W3        30.05R
ROCHELLE*      CLEAR     71  58  62 W6        30.02S
DE KALB*       CLEAR     68  57  67 NW7       30.02S
PERU*          CLEAR     71  61  71 W5        30.03R
$$

ILZ005-006-012>014-019>023-310200-
NORTHEAST ILLINOIS

CITY           SKY/WX    TMP DP  RH WIND       PRES   REMARKS
CHICAGO-OHARE  PTCLDY    70  56  61 E6        30.01R
CHICAGO-MIDWAY PTCLDY    70  59  68 E7        30.01S
AURORA         CLEAR     69  61  75 W5        30.01S
LANSING*       CLEAR     66  57  72 NE6       30.02R
JOLIET*        CLEAR     74  56  54 CALM      30.02R
WAUKEGAN       CLEAR     62  55  77 SE3       30.01S
DUPAGE AIRPORT PTCLDY    73  57  57 NE6       30.00S
KANKAKEE*      CLEAR     71  61  72 W3        30.02S
WHEELING       CLEAR     68  57  68 E5        30.02F
MORRIS*        CLEAR     71  63  76 W3        30.01S
ROMEOVILLE*    PTCLDY    71  58  64 NE3       30.01R
NORTHERLY ISL    N/A     65  60  84 E2          N/A
$$

LMZ740>746-310200-
SOUTHERN LAKE MICHIGAN

STATION/POSITION SKY/WX   TEMP    WIND        PRES    VSBY  WAVE
                          AIR SEA DIR/SP/G                  HT/PER
                          (F)     (DEG/KT/KT) (MB)    (MI)  (FT/S)
SOUTHERN BUOY              61 61   70/  2/  2 1016.3F         1
WAUKEGAN HARBOR            65     160/  4/  6   N/A
HARRISON CRIB              64      70/  4/  6   N/A
BURNHAM HARBOR             64      80/  3/  5   N/A
CALUMET HARBOR             65      30/  4/  5 1015.3S
MICHIGAN CITY              64      30/  7/  9   N/A
MICHIGAN CITY 6N           64 69   80/  6/  8   N/A           1/ 3
ST. JOSEPH                 64 68   30/  8/ 10   N/A           1/ 3
$$

ILZ025>027-034>036-040-047-049-050-058-095>099-310200-
WEST-CENTRAL ILLINOIS

CITY           SKY/WX    TMP DP  RH WIND       PRES   REMARKS
QUINCY         PTCLDY    74  60  61 CALM      30.06R
GALESBURG*     CLEAR     74  63  68 CALM      30.05S
MACOMB*        PTCLDY    69  63  82 W6        30.07S
JACKSONVILLE*  PTCLDY    74  66  77 CALM      30.06S
PITTSFIELD*    PTCLDY    73  62  68 CALM      30.06S
$$

ILZ028>032-037-038-041>044-048-051>054-059>061-310200-
CENTRAL ILLINOIS

CITY           SKY/WX    TMP DP  RH WIND       PRES   REMARKS
PONTIAC        CLEAR     72  63  73 W3        30.03R
DECATUR        CLEAR     75  57  53 NW7       30.04S
PEORIA         CLEAR     76  58  53 W5        30.04R
LACON*         CLEAR     74  59  59 CALM      30.02S
LINCOLN*       CLEAR     76  58  54 W3        30.01S
SPRINGFIELD    CLEAR     74  65  73 W3        30.05R
TAYLORVILLE    CLEAR     70  63  78 W3        30.05R
$$

ILZ033-039-045-046-055>057-062-063-310200-
EAST-CENTRAL ILLINOIS

CITY           SKY/WX    TMP DP  RH WIND       PRES   REMARKS
CHAMPAIGN      CLEAR     71  62  73 W5        30.04S
DANVILLE*      PTCLDY    69  62  77 W5        30.00S HAZE
RANTOUL*       CLEAR     72  61  69 W5        30.05R
MATTOON        CLEAR     71  61  70 CALM      30.04R
PARIS*         PTCLDY    69  66  90 CALM      30.05R
$$

ILZ079-100>102-310200-
SOUTHWEST ILLINOIS

CITY           SKY/WX    TMP DP  RH WIND       PRES   REMARKS
ALTON          PTCLDY    73  59  60 NW7       30.04S
BELLEVILLE     MOCLDY    74  63  68 S5        30.04R
CAHOKIA*       CLOUDY    76  62  62 S6        30.04R
SPARTA*        MOCLDY    72  61  68 S6        30.06F
$$

ILZ064>066-069>071-074>076-080>082-084>086-088>090-092>094-310200-
SOUTH-CENTRAL ILLINOIS

CITY           SKY/WX    TMP DP  RH WIND       PRES   REMARKS
CARBONDALE     MOCLDY    71  63  75 S3        30.06S
CAIRO*         CLOUDY    72  64  74 S3        30.06S
EFFINGHAM*     PTCLDY    71  57  60 CALM      30.05R
MARION         MOCLDY    72  63  73 CALM      30.07S
MT. VERNON     PTCLDY    72  59  64 SW8       30.07S
CENTRALIA*     PTCLDY    72  60  66 SW8       30.05S
SALEM*         PTCLDY   N/A N/A N/A SW7       30.05S
METROPOLIS*    MOCLDY    70  60  71 CALM      30.06S
$$

ILZ067-068-072-073-078-083-087-091-310200-
SOUTHEAST ILLINOIS

CITY           SKY/WX    TMP DP  RH WIND       PRES   REMARKS
LAWRENCEVILLE  PTCLDY    72  64  76 SW3       30.04F
FLORA*         PTCLDY    71  60  69 SW6       30.05R
FAIRFIELD*     PTCLDY    73  64  73 SW5       30.05S
HARRISBURG*    MOCLDY    71  59  65 CALM      30.07F
ROBINSON*      CLEAR     72  63  73 SW3       30.05S
CARMI*         MOCLDY    72  64  78 SW6       30.05S
$$

ABBREVIATIONS USED IN REMARKS
   TC - TEMPERATURE IN CELSIUS
  WCI - WIND CHILL INDEX
   HX - HEAT INDEX
  VSB - VISIBILITY
$$




USA.gov is the U.S. government's official web portal to all federal, state and local government web resources and services.